Sturgeon Lake, MN

9:47 AM CST on December 07, 2016 (GMT -0600)
Moose Lake-Carlton County

Weather History for KMZH - August, 2013

Change the Weather History Date:

Wednesday, August 14, 2013

  Actual Average Record
Temperature  
Mean Temperature 58 °F -  
Max Temperature 75 °F 77 °F 98 °F (1961)
Min Temperature 41 °F 52 °F 35 °F (1964)
Degree Days  
Heating Degree Days 7    
Growing Degree Days 8 (Base 50)    
Moisture  
Dew Point 46 °F    
Average Humidity 73    
Maximum Humidity 100    
Minimum Humidity 35    
Precipitation  
Precipitation 0.00 in - - ()
Sea Level Pressure  
Sea Level Pressure 30.15 in    
Wind  
Wind Speed 1 mph (WNW)    
Max Wind Speed 7 mph    
Max Gust Speed -    
Visibility 7 miles    
Events Fog    
Averages and records for this station are not official NWS values.
T = Trace of Precipitation, MM = Missing Value Source: NWS Daily Summary

Daily Weather History Graph

Daily Weather History Graph

Search for Another Location

Airport or City:

Trip Planner

Search our weather history database for the weather conditions in past years. The results will help you decide how hot, cold, wet, or windy it might be!

Date:

Astronomy

Aug. 14, 2013 Rise Set
Actual Time 6:08 AM CDT 8:21 PM CDT
Civil Twilight 5:35 AM CDT 8:54 PM CDT
Nautical Twilight 4:54 AM CDT 9:35 PM CDT
Astronomical Twilight 4:08 AM CDT 10:21 PM CDT
Moon 2:39 PM CDT (8/14) No Moon Set
Length of Visible Light 15h 19m
Length of Day
14h 13m
First Quarter, 53% of the Moon is Illuminated
Aug 14
First Quarter
Aug 20
Full
Aug 28
Last Quarter
Sep 5
New
Sep 12
First Quarter

Hourly Weather History & Observations

Time (CDT) Temp. Windchill Dew Point Humidity Pressure Visibility Wind Dir Wind Speed Gust Speed Precip Events Conditions
12:08 AM 46.4 °F - 46.4 °F 100% 30.19 in 10.0 mi Calm Calm - N/A   Scattered Clouds
12:28 AM 46.4 °F - 44.6 °F 93% 30.20 in 0.8 mi Calm Calm - N/A   Mist
12:48 AM 46.4 °F - 44.6 °F 93% 30.20 in 1.0 mi Calm Calm - N/A   Mist
1:08 AM 44.6 °F - 44.6 °F 100% 30.20 in 0.8 mi Calm Calm - N/A   Mist
1:28 AM 44.6 °F - 44.6 °F 100% 30.19 in 0.8 mi Calm Calm - N/A   Mist
1:48 AM 44.6 °F - 42.8 °F 93% 30.19 in 0.5 mi Calm Calm - N/A Fog Fog
2:08 AM 44.6 °F - 42.8 °F 93% 30.19 in 2.5 mi Calm Calm - N/A   Scattered Clouds
2:28 AM 44.6 °F - 44.6 °F 100% 30.19 in 1.0 mi Calm Calm - N/A   Mist
2:48 AM 42.8 °F - 42.8 °F 100% 30.19 in 1.0 mi Calm Calm - N/A   Mostly Cloudy
3:07 AM 42.8 °F - 42.8 °F 100% 30.18 in 1.0 mi Calm Calm - N/A   Overcast
3:28 AM 41.0 °F - 41.0 °F 100% 30.18 in 3.0 mi Calm Calm - N/A   Mostly Cloudy
3:48 AM 41.0 °F - 41.0 °F 100% 30.19 in 1.0 mi Calm Calm - N/A   Mist
4:08 AM 41.0 °F - 41.0 °F 100% 30.19 in 0.8 mi Calm Calm - N/A   Mist
4:28 AM 41.0 °F 39.0 °F 41.0 °F 100% 30.19 in 2.5 mi SW 3.5 mph - N/A   Mist
4:48 AM 41.0 °F - 41.0 °F 100% 30.19 in 7.0 mi Calm Calm - N/A   Scattered Clouds
5:08 AM 41.0 °F - 41.0 °F 100% 30.19 in 1.0 mi Calm Calm - N/A   Mist
5:28 AM 42.8 °F 40.1 °F 42.8 °F 100% 30.20 in 2.5 mi NE 4.6 mph - N/A   Mostly Cloudy
5:48 AM 42.8 °F - 42.8 °F 100% 30.20 in 1.0 mi Calm Calm - N/A   Overcast
6:08 AM 42.8 °F - 41.0 °F 93% 30.20 in 0.5 mi Calm Calm - N/A Fog Fog
6:28 AM 41.0 °F - 41.0 °F 100% 30.20 in 0.2 mi Calm Calm - N/A Fog Fog
6:48 AM 41.0 °F - 41.0 °F 100% 30.20 in 0.2 mi Calm Calm - N/A Fog Fog
7:08 AM 41.0 °F - 41.0 °F 100% 30.20 in 5.0 mi Calm Calm - N/A   Scattered Clouds
7:28 AM 44.6 °F - 42.8 °F 93% 30.20 in 7.0 mi Calm Calm - N/A   Clear
7:48 AM 46.4 °F - 46.4 °F 100% 30.20 in 10.0 mi Calm Calm - N/A   Clear
8:08 AM 50.0 °F - 50.0 °F 100% 30.19 in 10.0 mi Calm Calm - N/A   Clear
8:28 AM 51.8 °F - 51.8 °F 100% 30.19 in 10.0 mi Calm Calm - N/A   Clear
8:48 AM 55.4 °F - 53.6 °F 94% 30.19 in 10.0 mi Calm Calm - N/A   Clear
9:08 AM 59.0 °F - 50.0 °F 72% 30.18 in 10.0 mi Calm Calm - N/A   Clear
9:28 AM 60.8 °F - 50.0 °F 68% 30.19 in 10.0 mi Calm Calm - N/A   Clear
9:48 AM 62.6 °F - 50.0 °F 63% 30.19 in 10.0 mi Calm Calm - N/A   Clear
10:08 AM 62.6 °F - 50.0 °F 63% 30.19 in 10.0 mi Calm Calm - N/A   Clear
10:28 AM 64.4 °F - 50.0 °F 59% 30.19 in 10.0 mi Calm Calm - N/A   Clear
10:48 AM 66.2 °F - 46.4 °F 49% 30.19 in 10.0 mi Calm Calm - N/A   Clear
11:08 AM 68.0 °F - 44.6 °F 43% 30.19 in 10.0 mi Calm Calm - N/A   Clear
11:28 AM 68.0 °F - 46.4 °F 46% 30.18 in 10.0 mi West 3.5 mph - N/A   Clear
11:48 AM 69.8 °F - 44.6 °F 40% 30.18 in 10.0 mi Calm Calm - N/A   Scattered Clouds
12:08 PM 69.8 °F - 42.8 °F 38% 30.18 in 10.0 mi NNW 3.5 mph - N/A   Scattered Clouds
12:28 PM 69.8 °F - 46.4 °F 43% 30.17 in 10.0 mi WNW 5.8 mph - N/A   Scattered Clouds
12:48 PM 69.8 °F - 46.4 °F 43% 30.17 in 10.0 mi West 6.9 mph - N/A   Scattered Clouds
1:08 PM 71.6 °F - 44.6 °F 38% 30.16 in 10.0 mi WSW 5.8 mph - N/A   Mostly Cloudy
1:28 PM 71.6 °F - 44.6 °F 38% 30.15 in 10.0 mi Calm Calm - N/A   Mostly Cloudy
1:48 PM 71.6 °F - 42.8 °F 35% 30.14 in 10.0 mi West 3.5 mph - N/A   Scattered Clouds
2:48 PM 71.6 °F - 42.8 °F 35% 30.13 in 10.0 mi North 3.5 mph - N/A   Mostly Cloudy
3:08 PM 71.6 °F - 44.6 °F 38% 30.12 in 10.0 mi WNW 3.5 mph - N/A   Scattered Clouds
3:28 PM 73.4 °F - 44.6 °F 36% 30.12 in 10.0 mi WSW 4.6 mph - N/A   Scattered Clouds
3:48 PM 71.6 °F - 42.8 °F 35% 30.12 in 10.0 mi West 4.6 mph - N/A   Scattered Clouds
4:08 PM 73.4 °F - 44.6 °F 36% 30.11 in 10.0 mi Calm Calm - N/A   Overcast
4:28 PM 75.2 °F - 46.4 °F 36% 30.11 in 10.0 mi West 5.8 mph - N/A   Scattered Clouds
4:48 PM 73.4 °F - 44.6 °F 36% 30.11 in 10.0 mi NNW 5.8 mph - N/A   Clear
5:08 PM 73.4 °F - 44.6 °F 36% 30.10 in 10.0 mi WNW 4.6 mph - N/A   Scattered Clouds
5:28 PM 71.6 °F - 44.6 °F 38% 30.09 in 10.0 mi WNW 5.8 mph - N/A   Clear
5:48 PM 73.4 °F - 44.6 °F 36% 30.09 in 10.0 mi WNW 3.5 mph - N/A   Scattered Clouds
6:08 PM 71.6 °F - 42.8 °F 35% 30.09 in 10.0 mi West 3.5 mph - N/A   Scattered Clouds
6:28 PM 71.6 °F - 42.8 °F 35% 30.09 in 10.0 mi WSW 4.6 mph - N/A   Mostly Cloudy
6:48 PM 69.8 °F - 46.4 °F 43% 30.08 in 10.0 mi Calm Calm - N/A   Scattered Clouds
7:08 PM 69.8 °F - 46.4 °F 43% 30.08 in 10.0 mi West 3.5 mph - N/A   Scattered Clouds
7:28 PM 68.0 °F - 50.0 °F 52% 30.08 in 10.0 mi Calm Calm - N/A   Clear
7:48 PM 64.4 °F - 51.8 °F 64% 30.08 in 10.0 mi Calm Calm - N/A   Clear
8:08 PM 60.8 °F - 51.8 °F 72% 30.08 in 10.0 mi Calm Calm - N/A   Clear
8:28 PM 59.0 °F - 51.8 °F 77% 30.08 in 10.0 mi Calm Calm - N/A   Clear
8:48 PM 57.2 °F - 53.6 °F 88% 30.08 in 10.0 mi Calm Calm - N/A   Clear
9:08 PM 55.4 °F - 53.6 °F 94% 30.08 in 10.0 mi Calm Calm - N/A   Clear
9:28 PM 53.6 °F - 51.8 °F 94% 30.08 in 10.0 mi Calm Calm - N/A   Clear
9:48 PM 51.8 °F - 51.8 °F 100% 30.09 in 10.0 mi Calm Calm - N/A   Clear
10:08 PM 51.8 °F - 50.0 °F 94% 30.08 in 10.0 mi Calm Calm - N/A   Clear
10:28 PM 51.8 °F - 50.0 °F 94% 30.09 in 10.0 mi Calm Calm - N/A   Clear
10:48 PM 50.0 °F - 50.0 °F 100% 30.09 in 10.0 mi Calm Calm - N/A   Clear
11:08 PM 50.0 °F - 50.0 °F 100% 30.09 in 10.0 mi Calm Calm - N/A   Clear
11:28 PM 50.0 °F - 48.2 °F 94% 30.09 in 10.0 mi Calm Calm - N/A   Clear
11:48 PM 48.2 °F - 46.4 °F 93% 30.09 in 7.0 mi Calm Calm - N/A   Clear